User: anonymous   Login
Location: Unspecified
(0.0000°N, 0.0000°E)
Time: 05:17:47
(UTC+00:00)
Language:

Resurs 1-3 - Orbit

View from above orbital plane
View from above orbital plane
View from above satellite
View from above satellite

Ground track
Ground track

The orbit data is extracted from the following two-line orbital elements,

1 23342U 94074A   19083.02082408 -.00000116  00000-0 -86241-5 0  9999
2 23342  97.9919 131.1318 0001638 113.6695 246.4609 14.79379645313123
Epoch (UTC): 24 March 2019 00:29:59
Eccentricity: 0.0001638
inclination: 97.9919°
perigee height: 630 km
apogee height: 632 km
right ascension of ascending node: 131.1318°
argument of perigee: 113.6695°
revolutions per day: 14.79379645
mean anomaly at epoch: 246.4609°
orbit number at epoch: 31312

The dashed part of the orbit path shows where the satellite is in the earth's shadow,  

DLR